Flag for Germany Weather past 2 weeks in Esslingen, Baden-Württemberg, Germany

Now
59 °F

Clear.


Feels Like: 59 °F
Forecast: 56 / 78 °F
Wind: 1 mph from North

Location: Stuttgart-Echterdingen

Current Time: Sep 18, 2014 at 12:17:09 AM

Latest Report: Sep 17, 2014 at 11:20 PM


Visibility: 10 mi

Pressure: 29.92 "Hg

Humidity: 88%

Dew point: 55 °F

Location of EsslingenLocation

Historic Weather in Esslingen — Graph

°F

Esslingen temperature yesterday

Maximum temperature yesterday: 75 °F (at 3:20 PM)
Minimum temperature yesterday: 52 °F (at 3:50 AM)
Average temperature yesterday: 62 °F

Past Weeks' High & Low Weather Summary

 TemperatureHumidityPressure
High77 °F (Sep 6, 2:50 PM)100% (Sep 2, 10:50 PM)30.18 "Hg (Sep 2, 10:50 PM)
Low52 °F (Sep 11, 1:50 AM)50% (Sep 5, 5:20 PM)29.89 "Hg (Sep 17, 2:50 PM)
Average61 °F85%30.03 "Hg
* Reported Sep 2 10:20 PM — Sep 17 10:50 PM, Esslingen, Weather by CustomWeather, © 2014

Note: Actual official high and low records may vary slightly from our data, if they occured in-between our weather recording intervals... More about our weather records

Advertising

Esslingen weather history for previous 24 hours

 ConditionsComfort  
Time TempWeatherWind HumidityBarometerVisibility
10:50 PM
Sep 17
59 °FClear.1 mph88%29.92 "Hg10 mi
10:20 PM59 °FClear.1 mph88%29.92 "Hg10 mi
9:50 PM61 °FClear.1 mph88%29.92 "Hg10 mi
9:20 PM61 °FClear.2 mph83%29.92 "Hg10 mi
8:50 PM63 °FClear.2 mph83%29.92 "Hg10 mi
8:20 PM63 °FSunny.6 mph83%29.92 "Hg10 mi
7:50 PM64 °FSunny.9 mph73%29.89 "Hg10 mi
7:20 PM66 °FSunny.8 mph73%29.89 "Hg10 mi
6:50 PM70 °FSunny.8 mph64%29.89 "Hg10 mi
6:20 PM70 °FSunny.9 mph69%29.89 "Hg10 mi
5:50 PM72 °FSunny.9 mph65%29.89 "Hg10 mi
5:20 PM73 °FScattered clouds.8 mph61%29.89 "HgN/A
4:50 PM75 °FScattered clouds.8 mph57%29.89 "HgN/A
4:20 PM75 °FScattered clouds.6 mph57%29.89 "HgN/A
3:50 PM75 °FScattered clouds.6 mph57%29.89 "HgN/A
3:20 PM75 °FScattered clouds.6 mph54%29.89 "HgN/A
2:50 PM73 °FScattered clouds.5 mph65%29.89 "HgN/A
2:20 PM73 °FScattered clouds.5 mph65%29.92 "HgN/A
1:50 PM72 °FPassing clouds.5 mph65%29.92 "HgN/A
1:20 PM72 °FPassing clouds.5 mph65%29.92 "HgN/A
12:50 PM70 °FSunny.3 mph69%29.92 "Hg10 mi
12:20 PM68 °FSunny.2 mph73%29.95 "Hg10 mi
11:50 AM66 °FPassing clouds.2 mph78%29.95 "HgN/A
11:20 AM64 °FPassing clouds.2 mph88%29.95 "HgN/A
10:50 AM61 °FSleet. Light fog.1 mph94%29.95 "Hg5 mi
10:20 AM57 °FSleet. Cloudy.1 mph100%29.95 "Hg1 mi
9:50 AM55 °FFog.No wind100%29.95 "Hg0 mi
9:20 AM55 °FFog.2 mph100%29.95 "Hg0 mi
8:50 AM54 °FFog.No wind100%29.95 "Hg0 mi
8:20 AM54 °FFog.No wind100%29.95 "Hg0 mi
7:50 AM52 °FSleet. Overcast.No wind100%29.95 "Hg1 mi
7:20 AM52 °FFog.1 mph100%29.95 "Hg1 mi
6:50 AM54 °FFog.1 mph100%29.95 "Hg2 mi
6:20 AM52 °FFog.1 mph100%29.95 "Hg2 mi
5:50 AM52 °FFog.2 mph100%29.95 "Hg2 mi
5:20 AM52 °FFog.1 mph100%29.95 "Hg2 mi
4:50 AM54 °FFog.2 mph100%29.95 "Hg2 mi
4:20 AM54 °FFog.2 mph100%29.95 "Hg2 mi
3:50 AM52 °FFog.2 mph100%29.95 "Hg3 mi
3:20 AM54 °FFog.2 mph100%29.95 "Hg3 mi
2:50 AM54 °FFog.1 mph94%29.95 "Hg3 mi
2:20 AM55 °FFog.1 mph94%29.95 "Hg5 mi
1:50 AM55 °FFog.1 mph94%29.95 "Hg5 mi
1:20 AM55 °FFog.2 mph94%29.95 "Hg6 mi
12:50 AM55 °FFog.1 mph94%29.98 "Hg6 mi
12:20 AM57 °FFog.1 mph94%29.98 "HgN/A
Weather by CustomWeather, © 2014

See weather overviewHow to use our weather pages